<?xml version="1.0" encoding="UTF-8" standalone="no" ?>
<gpx xmlns="http://www.topografix.com/GPX/1/1" xmlns:xsi="http://www.w3.org/2001/XMLSchema-instance" xsi:schemaLocation="http://www.topografix.com/GPX/1/1 http://www.topografix.com/GPX/1/1/gpx.xsd" version="1.1" creator="VisuGPX - https://www.visugpx.com">
  <metadata>
    <name>Mur des Abeilles- pont de Rhaud</name>
  </metadata>
  <trk>
    <name><![CDATA[Tracé 001]]></name>
    <trkseg>
      <trkpt lat="43.57949" lon="5.06762">
        <ele>82.7</ele>
        <time>2020-11-29T15:13:04Z</time>
      </trkpt>
      <trkpt lat="43.57959" lon="5.06776">
        <ele>81</ele>
        <time>2020-11-29T15:13:04Z</time>
      </trkpt>
      <trkpt lat="43.57955" lon="5.06796">
        <ele>79.6</ele>
        <time>2020-11-29T15:15:12Z</time>
      </trkpt>
      <trkpt lat="43.57961" lon="5.06814">
        <ele>77.9</ele>
        <time>2020-11-29T15:15:12Z</time>
      </trkpt>
      <trkpt lat="43.57965" lon="5.06834">
        <ele>76.2</ele>
        <time>2020-11-29T15:15:12Z</time>
      </trkpt>
      <trkpt lat="43.57968" lon="5.06854">
        <ele>75.2</ele>
        <time>2020-11-29T15:15:12Z</time>
      </trkpt>
      <trkpt lat="43.57972" lon="5.06873">
        <ele>74.1</ele>
        <time>2020-11-29T15:15:12Z</time>
      </trkpt>
      <trkpt lat="43.57977" lon="5.06891">
        <ele>73</ele>
        <time>2020-11-29T15:15:12Z</time>
      </trkpt>
      <trkpt lat="43.57981" lon="5.06911">
        <ele>72</ele>
        <time>2020-11-29T15:15:12Z</time>
      </trkpt>
      <trkpt lat="43.57984" lon="5.06929">
        <ele>71.9</ele>
        <time>2020-11-29T15:15:12Z</time>
      </trkpt>
      <trkpt lat="43.57986" lon="5.06948">
        <ele>72.3</ele>
        <time>2020-11-29T15:15:12Z</time>
      </trkpt>
      <trkpt lat="43.57993" lon="5.06965">
        <ele>72.4</ele>
        <time>2020-11-29T15:15:12Z</time>
      </trkpt>
      <trkpt lat="43.57998" lon="5.06984">
        <ele>72.7</ele>
        <time>2020-11-29T15:15:12Z</time>
      </trkpt>
      <trkpt lat="43.57999" lon="5.07003">
        <ele>73.1</ele>
        <time>2020-11-29T15:15:12Z</time>
      </trkpt>
      <trkpt lat="43.57997" lon="5.07022">
        <ele>73.9</ele>
        <time>2020-11-29T15:15:12Z</time>
      </trkpt>
      <trkpt lat="43.57997" lon="5.07042">
        <ele>74.6</ele>
        <time>2020-11-29T15:17:20Z</time>
      </trkpt>
      <trkpt lat="43.57995" lon="5.07061">
        <ele>75.3</ele>
        <time>2020-11-29T15:17:20Z</time>
      </trkpt>
      <trkpt lat="43.57995" lon="5.0708">
        <ele>76</ele>
        <time>2020-11-29T15:17:20Z</time>
      </trkpt>
      <trkpt lat="43.57973" lon="5.07172">
        <ele>77.5</ele>
      </trkpt>
      <trkpt lat="43.57975" lon="5.07182">
        <ele>77.3</ele>
      </trkpt>
      <trkpt lat="43.57975" lon="5.07194">
        <ele>77</ele>
      </trkpt>
      <trkpt lat="43.57973" lon="5.07203">
        <ele>76.7</ele>
      </trkpt>
      <trkpt lat="43.57975" lon="5.07213">
        <ele>76.4</ele>
      </trkpt>
      <trkpt lat="43.57976" lon="5.07225">
        <ele>76.1</ele>
      </trkpt>
      <trkpt lat="43.57978" lon="5.07234">
        <ele>75.9</ele>
      </trkpt>
      <trkpt lat="43.57973" lon="5.0724">
        <ele>75.6</ele>
      </trkpt>
      <trkpt lat="43.57971" lon="5.07248">
        <ele>75.4</ele>
      </trkpt>
      <trkpt lat="43.57969" lon="5.07258">
        <ele>75</ele>
      </trkpt>
      <trkpt lat="43.57968" lon="5.0727">
        <ele>74.6</ele>
      </trkpt>
      <trkpt lat="43.57972" lon="5.07275">
        <ele>74.5</ele>
      </trkpt>
      <trkpt lat="43.57979" lon="5.07279">
        <ele>74.6</ele>
      </trkpt>
      <trkpt lat="43.57983" lon="5.07283">
        <ele>74.6</ele>
      </trkpt>
      <trkpt lat="43.57995" lon="5.07286">
        <ele>74.9</ele>
        <time>2020-11-29T15:19:28Z</time>
      </trkpt>
      <trkpt lat="43.58006" lon="5.07298">
        <ele>75.2</ele>
        <time>2020-11-29T15:19:28Z</time>
      </trkpt>
      <trkpt lat="43.5802" lon="5.07301">
        <ele>75.9</ele>
        <time>2020-11-29T15:19:28Z</time>
      </trkpt>
      <trkpt lat="43.58034" lon="5.073">
        <ele>76.6</ele>
        <time>2020-11-29T15:19:28Z</time>
      </trkpt>
      <trkpt lat="43.58047" lon="5.07299">
        <ele>77.5</ele>
        <time>2020-11-29T15:19:28Z</time>
      </trkpt>
      <trkpt lat="43.58062" lon="5.07303">
        <ele>78.1</ele>
        <time>2020-11-29T15:19:28Z</time>
      </trkpt>
      <trkpt lat="43.58076" lon="5.07305">
        <ele>78.7</ele>
        <time>2020-11-29T15:19:28Z</time>
      </trkpt>
      <trkpt lat="43.58092" lon="5.07305">
        <ele>78.9</ele>
        <time>2020-11-29T15:19:28Z</time>
      </trkpt>
      <trkpt lat="43.58106" lon="5.07304">
        <ele>78.8</ele>
        <time>2020-11-29T15:19:28Z</time>
      </trkpt>
      <trkpt lat="43.58121" lon="5.07305">
        <ele>78.5</ele>
        <time>2020-11-29T15:19:28Z</time>
      </trkpt>
      <trkpt lat="43.58135" lon="5.07307">
        <ele>78</ele>
        <time>2020-11-29T15:19:28Z</time>
      </trkpt>
      <trkpt lat="43.58146" lon="5.07319">
        <ele>76.4</ele>
        <time>2020-11-29T15:21:36Z</time>
      </trkpt>
      <trkpt lat="43.58158" lon="5.07332">
        <ele>74.5</ele>
        <time>2020-11-29T15:21:36Z</time>
      </trkpt>
      <trkpt lat="43.58167" lon="5.07346">
        <ele>73.7</ele>
        <time>2020-11-29T15:21:36Z</time>
      </trkpt>
      <trkpt lat="43.58175" lon="5.07361">
        <ele>73.5</ele>
        <time>2020-11-29T15:21:36Z</time>
      </trkpt>
      <trkpt lat="43.58182" lon="5.07377">
        <ele>73.3</ele>
        <time>2020-11-29T15:21:36Z</time>
      </trkpt>
      <trkpt lat="43.58192" lon="5.07392">
        <ele>73.4</ele>
        <time>2020-11-29T15:21:36Z</time>
      </trkpt>
      <trkpt lat="43.582" lon="5.07407">
        <ele>73.6</ele>
        <time>2020-11-29T15:21:36Z</time>
      </trkpt>
      <trkpt lat="43.58205" lon="5.07424">
        <ele>74.1</ele>
        <time>2020-11-29T15:21:36Z</time>
      </trkpt>
      <trkpt lat="43.58212" lon="5.0744">
        <ele>75.1</ele>
        <time>2020-11-29T15:21:36Z</time>
      </trkpt>
      <trkpt lat="43.58209" lon="5.07459">
        <ele>75.6</ele>
        <time>2020-11-29T15:21:36Z</time>
      </trkpt>
      <trkpt lat="43.58205" lon="5.07477">
        <ele>76</ele>
        <time>2020-11-29T15:21:36Z</time>
      </trkpt>
      <trkpt lat="43.58204" lon="5.07496">
        <ele>76.6</ele>
        <time>2020-11-29T15:21:36Z</time>
      </trkpt>
      <trkpt lat="43.58204" lon="5.07515">
        <ele>76.3</ele>
        <time>2020-11-29T15:23:44Z</time>
      </trkpt>
      <trkpt lat="43.58204" lon="5.07534">
        <ele>75.6</ele>
        <time>2020-11-29T15:23:44Z</time>
      </trkpt>
      <trkpt lat="43.58209" lon="5.07552">
        <ele>75.1</ele>
        <time>2020-11-29T15:23:44Z</time>
      </trkpt>
      <trkpt lat="43.5822" lon="5.07565">
        <ele>74.8</ele>
        <time>2020-11-29T15:23:44Z</time>
      </trkpt>
      <trkpt lat="43.58235" lon="5.07571">
        <ele>74.6</ele>
        <time>2020-11-29T15:23:44Z</time>
      </trkpt>
      <trkpt lat="43.58249" lon="5.07567">
        <ele>75</ele>
        <time>2020-11-29T15:23:44Z</time>
      </trkpt>
      <trkpt lat="43.58264" lon="5.07567">
        <ele>74.9</ele>
        <time>2020-11-29T15:23:44Z</time>
      </trkpt>
      <trkpt lat="43.58278" lon="5.0757">
        <ele>74.7</ele>
        <time>2020-11-29T15:23:44Z</time>
      </trkpt>
      <trkpt lat="43.58291" lon="5.07576">
        <ele>74.2</ele>
        <time>2020-11-29T15:23:44Z</time>
      </trkpt>
      <trkpt lat="43.58304" lon="5.07582">
        <ele>73.5</ele>
        <time>2020-11-29T15:23:44Z</time>
      </trkpt>
      <trkpt lat="43.58317" lon="5.07587">
        <ele>72.9</ele>
        <time>2020-11-29T15:23:44Z</time>
      </trkpt>
      <trkpt lat="43.58331" lon="5.07594">
        <ele>72.4</ele>
        <time>2020-11-29T15:23:44Z</time>
      </trkpt>
      <trkpt lat="43.58346" lon="5.076">
        <ele>71.7</ele>
        <time>2020-11-29T15:23:44Z</time>
      </trkpt>
      <trkpt lat="43.58358" lon="5.0761">
        <ele>70.9</ele>
        <time>2020-11-29T15:25:52Z</time>
      </trkpt>
      <trkpt lat="43.58397" lon="5.07622">
        <ele>69.8</ele>
      </trkpt>
      <trkpt lat="43.58408" lon="5.07614">
        <ele>69.8</ele>
      </trkpt>
      <trkpt lat="43.58414" lon="5.07606">
        <ele>69.8</ele>
      </trkpt>
      <trkpt lat="43.58433" lon="5.07606">
        <ele>69.1</ele>
      </trkpt>
      <trkpt lat="43.58449" lon="5.07606">
        <ele>68.5</ele>
      </trkpt>
      <trkpt lat="43.58462" lon="5.07602">
        <ele>68</ele>
      </trkpt>
      <trkpt lat="43.58473" lon="5.07594">
        <ele>67.4</ele>
      </trkpt>
      <trkpt lat="43.58486" lon="5.0759">
        <ele>66.8</ele>
      </trkpt>
      <trkpt lat="43.58497" lon="5.07575">
        <ele>66.7</ele>
      </trkpt>
      <trkpt lat="43.58508" lon="5.07559">
        <ele>67.4</ele>
      </trkpt>
      <trkpt lat="43.58516" lon="5.0754">
        <ele>68.4</ele>
      </trkpt>
      <trkpt lat="43.58527" lon="5.07528">
        <ele>68.8</ele>
      </trkpt>
      <trkpt lat="43.58532" lon="5.07512">
        <ele>69.3</ele>
      </trkpt>
      <trkpt lat="43.58538" lon="5.07497">
        <ele>70</ele>
      </trkpt>
      <trkpt lat="43.58543" lon="5.07481">
        <ele>71.8</ele>
      </trkpt>
      <trkpt lat="43.58551" lon="5.07466">
        <ele>73.4</ele>
      </trkpt>
      <trkpt lat="43.58565" lon="5.07462">
        <ele>73.4</ele>
      </trkpt>
      <trkpt lat="43.58575" lon="5.0745">
        <ele>74.3</ele>
      </trkpt>
      <trkpt lat="43.58592" lon="5.07438">
        <ele>75.1</ele>
      </trkpt>
      <trkpt lat="43.58605" lon="5.07431">
        <ele>75.3</ele>
      </trkpt>
      <trkpt lat="43.58616" lon="5.07423">
        <ele>75.5</ele>
      </trkpt>
      <trkpt lat="43.58632" lon="5.07411">
        <ele>75.3</ele>
      </trkpt>
      <trkpt lat="43.58643" lon="5.07403">
        <ele>75</ele>
      </trkpt>
      <trkpt lat="43.58654" lon="5.07392">
        <ele>74.9</ele>
      </trkpt>
      <trkpt lat="43.58667" lon="5.07384">
        <ele>74.6</ele>
      </trkpt>
      <trkpt lat="43.5868" lon="5.07376">
        <ele>74.8</ele>
      </trkpt>
      <trkpt lat="43.58697" lon="5.07368">
        <ele>74.9</ele>
      </trkpt>
      <trkpt lat="43.58707" lon="5.0736">
        <ele>75</ele>
      </trkpt>
      <trkpt lat="43.58721" lon="5.07353">
        <ele>75.1</ele>
      </trkpt>
      <trkpt lat="43.58734" lon="5.07341">
        <ele>75.2</ele>
      </trkpt>
      <trkpt lat="43.58748" lon="5.07329">
        <ele>75.1</ele>
      </trkpt>
      <trkpt lat="43.58759" lon="5.07318">
        <ele>75.2</ele>
      </trkpt>
      <trkpt lat="43.58769" lon="5.0731">
        <ele>75.2</ele>
      </trkpt>
      <trkpt lat="43.58783" lon="5.07306">
        <ele>75.1</ele>
      </trkpt>
      <trkpt lat="43.58799" lon="5.07306">
        <ele>74.9</ele>
      </trkpt>
      <trkpt lat="43.58812" lon="5.07302">
        <ele>74.8</ele>
      </trkpt>
      <trkpt lat="43.58829" lon="5.07298">
        <ele>74.8</ele>
      </trkpt>
      <trkpt lat="43.58845" lon="5.07294">
        <ele>74.7</ele>
      </trkpt>
      <trkpt lat="43.58858" lon="5.0729">
        <ele>74.6</ele>
      </trkpt>
      <trkpt lat="43.58872" lon="5.07286">
        <ele>74.5</ele>
      </trkpt>
      <trkpt lat="43.5888" lon="5.07279">
        <ele>74.5</ele>
      </trkpt>
      <trkpt lat="43.58902" lon="5.07261">
        <ele>74.3</ele>
      </trkpt>
      <trkpt lat="43.58903" lon="5.07253">
        <ele>74.5</ele>
      </trkpt>
      <trkpt lat="43.58904" lon="5.07246">
        <ele>74.5</ele>
      </trkpt>
      <trkpt lat="43.58904" lon="5.07238">
        <ele>74.7</ele>
      </trkpt>
      <trkpt lat="43.58905" lon="5.07231">
        <ele>74.9</ele>
      </trkpt>
      <trkpt lat="43.58907" lon="5.07223">
        <ele>75</ele>
      </trkpt>
      <trkpt lat="43.5891" lon="5.07212">
        <ele>75.1</ele>
      </trkpt>
      <trkpt lat="43.58912" lon="5.07205">
        <ele>75.3</ele>
      </trkpt>
      <trkpt lat="43.58915" lon="5.07197">
        <ele>75.3</ele>
      </trkpt>
      <trkpt lat="43.58918" lon="5.0719">
        <ele>75.4</ele>
      </trkpt>
      <trkpt lat="43.58922" lon="5.07177">
        <ele>75.4</ele>
      </trkpt>
      <trkpt lat="43.58925" lon="5.07168">
        <ele>75.4</ele>
      </trkpt>
      <trkpt lat="43.58928" lon="5.07159">
        <ele>75.2</ele>
      </trkpt>
      <trkpt lat="43.58931" lon="5.07153">
        <ele>75</ele>
      </trkpt>
      <trkpt lat="43.58934" lon="5.07149">
        <ele>74.8</ele>
      </trkpt>
      <trkpt lat="43.58938" lon="5.07145">
        <ele>74.6</ele>
      </trkpt>
      <trkpt lat="43.58941" lon="5.07141">
        <ele>74.3</ele>
      </trkpt>
      <trkpt lat="43.58943" lon="5.07136">
        <ele>74.2</ele>
      </trkpt>
      <trkpt lat="43.58947" lon="5.07129">
        <ele>74</ele>
      </trkpt>
      <trkpt lat="43.58951" lon="5.07124">
        <ele>73.7</ele>
      </trkpt>
      <trkpt lat="43.58957" lon="5.07118">
        <ele>73.4</ele>
      </trkpt>
      <trkpt lat="43.58959" lon="5.07111">
        <ele>73.3</ele>
      </trkpt>
      <trkpt lat="43.58959" lon="5.07111">
        <ele>73.3</ele>
      </trkpt>
      <trkpt lat="43.58963" lon="5.07106">
        <ele>73.1</ele>
      </trkpt>
      <trkpt lat="43.58966" lon="5.07102">
        <ele>72.9</ele>
      </trkpt>
      <trkpt lat="43.58968" lon="5.07096">
        <ele>72.8</ele>
      </trkpt>
      <trkpt lat="43.58971" lon="5.07089">
        <ele>72.7</ele>
      </trkpt>
      <trkpt lat="43.58973" lon="5.07083">
        <ele>72.6</ele>
      </trkpt>
      <trkpt lat="43.58976" lon="5.07077">
        <ele>72.4</ele>
      </trkpt>
      <trkpt lat="43.58982" lon="5.07073">
        <ele>72.1</ele>
      </trkpt>
      <trkpt lat="43.58986" lon="5.0707">
        <ele>71.9</ele>
      </trkpt>
      <trkpt lat="43.58991" lon="5.07067">
        <ele>71.6</ele>
      </trkpt>
      <trkpt lat="43.58996" lon="5.07062">
        <ele>71.4</ele>
      </trkpt>
      <trkpt lat="43.59001" lon="5.07057">
        <ele>71.3</ele>
      </trkpt>
      <trkpt lat="43.59005" lon="5.07053">
        <ele>71.3</ele>
      </trkpt>
      <trkpt lat="43.5901" lon="5.07049">
        <ele>71.3</ele>
      </trkpt>
      <trkpt lat="43.59013" lon="5.07044">
        <ele>71.3</ele>
      </trkpt>
      <trkpt lat="43.59018" lon="5.0704">
        <ele>71.3</ele>
      </trkpt>
      <trkpt lat="43.59021" lon="5.07036">
        <ele>71.4</ele>
      </trkpt>
      <trkpt lat="43.59025" lon="5.07031">
        <ele>71.4</ele>
      </trkpt>
      <trkpt lat="43.59028" lon="5.07027">
        <ele>71.5</ele>
      </trkpt>
      <trkpt lat="43.59034" lon="5.07023">
        <ele>71.5</ele>
      </trkpt>
      <trkpt lat="43.59039" lon="5.07021">
        <ele>71.5</ele>
      </trkpt>
      <trkpt lat="43.59045" lon="5.07019">
        <ele>71.5</ele>
      </trkpt>
      <trkpt lat="43.5905" lon="5.07018">
        <ele>71.5</ele>
      </trkpt>
      <trkpt lat="43.59055" lon="5.07014">
        <ele>71.6</ele>
      </trkpt>
      <trkpt lat="43.5906" lon="5.07011">
        <ele>71.7</ele>
      </trkpt>
      <trkpt lat="43.59065" lon="5.07008">
        <ele>71.7</ele>
      </trkpt>
      <trkpt lat="43.59071" lon="5.07002">
        <ele>71.9</ele>
      </trkpt>
      <trkpt lat="43.59075" lon="5.06999">
        <ele>72</ele>
      </trkpt>
      <trkpt lat="43.59081" lon="5.06997">
        <ele>71.9</ele>
      </trkpt>
      <trkpt lat="43.59085" lon="5.06994">
        <ele>71.9</ele>
      </trkpt>
      <trkpt lat="43.59089" lon="5.06992">
        <ele>72.1</ele>
      </trkpt>
      <trkpt lat="43.59092" lon="5.06988">
        <ele>72.2</ele>
      </trkpt>
      <trkpt lat="43.59092" lon="5.0698">
        <ele>72</ele>
      </trkpt>
      <trkpt lat="43.59095" lon="5.06973">
        <ele>72.1</ele>
      </trkpt>
      <trkpt lat="43.59097" lon="5.06967">
        <ele>72.1</ele>
      </trkpt>
      <trkpt lat="43.59098" lon="5.0696">
        <ele>72.1</ele>
      </trkpt>
      <trkpt lat="43.591" lon="5.06955">
        <ele>72.2</ele>
      </trkpt>
      <trkpt lat="43.59104" lon="5.0695">
        <ele>72.4</ele>
      </trkpt>
      <trkpt lat="43.59107" lon="5.06946">
        <ele>72.5</ele>
      </trkpt>
      <trkpt lat="43.5911" lon="5.0694">
        <ele>72.8</ele>
      </trkpt>
      <trkpt lat="43.59112" lon="5.06933">
        <ele>72.9</ele>
      </trkpt>
      <trkpt lat="43.59115" lon="5.06928">
        <ele>73.1</ele>
      </trkpt>
      <trkpt lat="43.59118" lon="5.06921">
        <ele>73.4</ele>
      </trkpt>
      <trkpt lat="43.59123" lon="5.06916">
        <ele>73.8</ele>
      </trkpt>
      <trkpt lat="43.59128" lon="5.06912">
        <ele>74.2</ele>
      </trkpt>
      <trkpt lat="43.59134" lon="5.06908">
        <ele>74.7</ele>
      </trkpt>
      <trkpt lat="43.59139" lon="5.06905">
        <ele>75</ele>
      </trkpt>
      <trkpt lat="43.59143" lon="5.06903">
        <ele>75.3</ele>
      </trkpt>
      <trkpt lat="43.59147" lon="5.06901">
        <ele>75.6</ele>
      </trkpt>
      <trkpt lat="43.59151" lon="5.06897">
        <ele>75.8</ele>
      </trkpt>
      <trkpt lat="43.59157" lon="5.06894">
        <ele>76.1</ele>
      </trkpt>
      <trkpt lat="43.59163" lon="5.06894">
        <ele>76.6</ele>
      </trkpt>
      <trkpt lat="43.59168" lon="5.06893">
        <ele>76.8</ele>
      </trkpt>
      <trkpt lat="43.59173" lon="5.06892">
        <ele>76.7</ele>
      </trkpt>
      <trkpt lat="43.59178" lon="5.0689">
        <ele>76.6</ele>
      </trkpt>
      <trkpt lat="43.59183" lon="5.06888">
        <ele>76.5</ele>
      </trkpt>
      <trkpt lat="43.59188" lon="5.06886">
        <ele>76.4</ele>
      </trkpt>
      <trkpt lat="43.59193" lon="5.06885">
        <ele>76.3</ele>
      </trkpt>
      <trkpt lat="43.59196" lon="5.06881">
        <ele>76.1</ele>
      </trkpt>
      <trkpt lat="43.592" lon="5.06876">
        <ele>75.8</ele>
      </trkpt>
      <trkpt lat="43.59204" lon="5.06871">
        <ele>75.6</ele>
      </trkpt>
      <trkpt lat="43.59209" lon="5.06868">
        <ele>75.5</ele>
      </trkpt>
      <trkpt lat="43.59214" lon="5.06866">
        <ele>75.3</ele>
      </trkpt>
      <trkpt lat="43.59219" lon="5.06863">
        <ele>75.2</ele>
      </trkpt>
      <trkpt lat="43.59225" lon="5.06863">
        <ele>75.2</ele>
      </trkpt>
      <trkpt lat="43.59231" lon="5.06863">
        <ele>75.2</ele>
      </trkpt>
      <trkpt lat="43.59235" lon="5.06862">
        <ele>75.1</ele>
      </trkpt>
      <trkpt lat="43.5924" lon="5.0686">
        <ele>75</ele>
      </trkpt>
      <trkpt lat="43.59246" lon="5.0686">
        <ele>75</ele>
      </trkpt>
      <trkpt lat="43.59251" lon="5.0686">
        <ele>74.9</ele>
      </trkpt>
      <trkpt lat="43.59257" lon="5.0686">
        <ele>74.8</ele>
      </trkpt>
      <trkpt lat="43.59263" lon="5.0686">
        <ele>74.6</ele>
      </trkpt>
      <trkpt lat="43.59269" lon="5.0686">
        <ele>74.4</ele>
      </trkpt>
      <trkpt lat="43.59275" lon="5.0686">
        <ele>74.3</ele>
      </trkpt>
      <trkpt lat="43.59282" lon="5.0686">
        <ele>74.1</ele>
      </trkpt>
      <trkpt lat="43.59287" lon="5.0686">
        <ele>73.9</ele>
      </trkpt>
      <trkpt lat="43.59293" lon="5.0686">
        <ele>73.8</ele>
      </trkpt>
      <trkpt lat="43.59299" lon="5.0686">
        <ele>73.6</ele>
      </trkpt>
      <trkpt lat="43.59304" lon="5.06859">
        <ele>73.4</ele>
      </trkpt>
      <trkpt lat="43.59309" lon="5.06858">
        <ele>73.3</ele>
      </trkpt>
      <trkpt lat="43.59313" lon="5.06857">
        <ele>73.1</ele>
      </trkpt>
      <trkpt lat="43.59319" lon="5.06854">
        <ele>72.9</ele>
      </trkpt>
      <trkpt lat="43.59324" lon="5.06854">
        <ele>72.7</ele>
      </trkpt>
      <trkpt lat="43.59328" lon="5.0685">
        <ele>72.5</ele>
      </trkpt>
      <trkpt lat="43.59333" lon="5.06846">
        <ele>72.3</ele>
      </trkpt>
      <trkpt lat="43.59338" lon="5.06844">
        <ele>72.1</ele>
      </trkpt>
      <trkpt lat="43.59342" lon="5.06838">
        <ele>71.9</ele>
      </trkpt>
      <trkpt lat="43.59346" lon="5.06832">
        <ele>71.7</ele>
      </trkpt>
      <trkpt lat="43.5935" lon="5.06828">
        <ele>71.6</ele>
      </trkpt>
      <trkpt lat="43.59355" lon="5.06827">
        <ele>71.5</ele>
      </trkpt>
      <trkpt lat="43.59359" lon="5.06821">
        <ele>71.5</ele>
      </trkpt>
      <trkpt lat="43.59362" lon="5.06818">
        <ele>71.4</ele>
      </trkpt>
      <trkpt lat="43.5938" lon="5.06829">
        <ele>70.9</ele>
        <time>2020-11-29T13:43:28Z</time>
      </trkpt>
      <trkpt lat="43.59371" lon="5.06815">
        <ele>71.3</ele>
        <time>2020-11-29T13:43:28Z</time>
      </trkpt>
      <trkpt lat="43.5936" lon="5.06799">
        <ele>71.6</ele>
        <time>2020-11-29T13:43:28Z</time>
      </trkpt>
      <trkpt lat="43.5935" lon="5.06785">
        <ele>71.8</ele>
        <time>2020-11-29T13:43:28Z</time>
      </trkpt>
      <trkpt lat="43.59338" lon="5.06772">
        <ele>72</ele>
        <time>2020-11-29T13:43:28Z</time>
      </trkpt>
      <trkpt lat="43.59328" lon="5.0676">
        <ele>72.1</ele>
        <time>2020-11-29T13:43:28Z</time>
      </trkpt>
      <trkpt lat="43.59316" lon="5.06748">
        <ele>72.5</ele>
        <time>2020-11-29T13:43:28Z</time>
      </trkpt>
      <trkpt lat="43.59304" lon="5.06737">
        <ele>73.2</ele>
        <time>2020-11-29T13:45:36Z</time>
      </trkpt>
      <trkpt lat="43.59292" lon="5.06727">
        <ele>73.7</ele>
        <time>2020-11-29T13:45:36Z</time>
      </trkpt>
      <trkpt lat="43.59281" lon="5.06714">
        <ele>74.2</ele>
        <time>2020-11-29T13:45:36Z</time>
      </trkpt>
      <trkpt lat="43.5927" lon="5.06701">
        <ele>74.5</ele>
        <time>2020-11-29T13:45:36Z</time>
      </trkpt>
      <trkpt lat="43.5926" lon="5.06687">
        <ele>74.8</ele>
        <time>2020-11-29T13:45:36Z</time>
      </trkpt>
      <trkpt lat="43.59251" lon="5.06673">
        <ele>74.9</ele>
        <time>2020-11-29T13:45:36Z</time>
      </trkpt>
      <trkpt lat="43.59242" lon="5.06657">
        <ele>75.4</ele>
        <time>2020-11-29T13:45:36Z</time>
      </trkpt>
      <trkpt lat="43.59233" lon="5.0664">
        <ele>75.8</ele>
        <time>2020-11-29T13:45:36Z</time>
      </trkpt>
      <trkpt lat="43.59227" lon="5.06623">
        <ele>76</ele>
        <time>2020-11-29T13:45:36Z</time>
      </trkpt>
      <trkpt lat="43.5922" lon="5.06603">
        <ele>76.1</ele>
        <time>2020-11-29T13:45:36Z</time>
      </trkpt>
      <trkpt lat="43.59214" lon="5.06585">
        <ele>76.1</ele>
        <time>2020-11-29T13:45:36Z</time>
      </trkpt>
      <trkpt lat="43.59212" lon="5.06565">
        <ele>75.7</ele>
        <time>2020-11-29T13:45:36Z</time>
      </trkpt>
      <trkpt lat="43.59214" lon="5.06541">
        <ele>75.2</ele>
        <time>2020-11-29T13:47:44Z</time>
      </trkpt>
      <trkpt lat="43.59207" lon="5.06518">
        <ele>74.4</ele>
        <time>2020-11-29T13:47:44Z</time>
      </trkpt>
      <trkpt lat="43.59206" lon="5.06498">
        <ele>73.9</ele>
        <time>2020-11-29T13:47:44Z</time>
      </trkpt>
      <trkpt lat="43.59209" lon="5.06479">
        <ele>73.8</ele>
        <time>2020-11-29T13:47:44Z</time>
      </trkpt>
      <trkpt lat="43.59209" lon="5.06459">
        <ele>73.5</ele>
        <time>2020-11-29T13:47:44Z</time>
      </trkpt>
      <trkpt lat="43.59204" lon="5.06439">
        <ele>73</ele>
        <time>2020-11-29T13:47:44Z</time>
      </trkpt>
      <trkpt lat="43.59204" lon="5.06419">
        <ele>72.7</ele>
        <time>2020-11-29T13:47:44Z</time>
      </trkpt>
      <trkpt lat="43.59206" lon="5.06401">
        <ele>72.7</ele>
        <time>2020-11-29T13:47:44Z</time>
      </trkpt>
      <trkpt lat="43.59203" lon="5.0638">
        <ele>72.2</ele>
        <time>2020-11-29T13:47:44Z</time>
      </trkpt>
      <trkpt lat="43.59203" lon="5.06361">
        <ele>71.9</ele>
        <time>2020-11-29T13:47:44Z</time>
      </trkpt>
      <trkpt lat="43.59202" lon="5.06341">
        <ele>71.6</ele>
        <time>2020-11-29T13:47:44Z</time>
      </trkpt>
      <trkpt lat="43.59203" lon="5.06321">
        <ele>71.6</ele>
        <time>2020-11-29T13:47:44Z</time>
      </trkpt>
      <trkpt lat="43.59204" lon="5.06301">
        <ele>71.7</ele>
        <time>2020-11-29T13:49:52Z</time>
      </trkpt>
      <trkpt lat="43.59209" lon="5.06284">
        <ele>72</ele>
        <time>2020-11-29T13:49:52Z</time>
      </trkpt>
      <trkpt lat="43.59212" lon="5.06265">
        <ele>72.3</ele>
        <time>2020-11-29T13:49:52Z</time>
      </trkpt>
      <trkpt lat="43.59216" lon="5.06246">
        <ele>72.6</ele>
        <time>2020-11-29T13:49:52Z</time>
      </trkpt>
      <trkpt lat="43.59217" lon="5.06226">
        <ele>73.2</ele>
        <time>2020-11-29T13:49:52Z</time>
      </trkpt>
      <trkpt lat="43.59215" lon="5.06207">
        <ele>73.4</ele>
        <time>2020-11-29T13:49:52Z</time>
      </trkpt>
      <trkpt lat="43.59213" lon="5.06188">
        <ele>73.7</ele>
        <time>2020-11-29T13:49:52Z</time>
      </trkpt>
      <trkpt lat="43.59212" lon="5.06168">
        <ele>74.1</ele>
        <time>2020-11-29T13:49:52Z</time>
      </trkpt>
      <trkpt lat="43.59213" lon="5.06149">
        <ele>74.7</ele>
        <time>2020-11-29T13:49:52Z</time>
      </trkpt>
      <trkpt lat="43.59215" lon="5.06131">
        <ele>75.3</ele>
        <time>2020-11-29T13:49:52Z</time>
      </trkpt>
      <trkpt lat="43.59224" lon="5.06114">
        <ele>76.2</ele>
        <time>2020-11-29T13:49:52Z</time>
      </trkpt>
      <trkpt lat="43.59234" lon="5.061">
        <ele>77.3</ele>
        <time>2020-11-29T13:49:52Z</time>
      </trkpt>
      <trkpt lat="43.59238" lon="5.06083">
        <ele>78.1</ele>
        <time>2020-11-29T13:49:52Z</time>
      </trkpt>
      <trkpt lat="43.59243" lon="5.06063">
        <ele>78.1</ele>
        <time>2020-11-29T13:52:00Z</time>
      </trkpt>
      <trkpt lat="43.59247" lon="5.06043">
        <ele>77.8</ele>
        <time>2020-11-29T13:52:00Z</time>
      </trkpt>
      <trkpt lat="43.59244" lon="5.06024">
        <ele>77.3</ele>
        <time>2020-11-29T13:52:00Z</time>
      </trkpt>
      <trkpt lat="43.59246" lon="5.06005">
        <ele>77</ele>
        <time>2020-11-29T13:52:00Z</time>
      </trkpt>
      <trkpt lat="43.59248" lon="5.05985">
        <ele>76.8</ele>
        <time>2020-11-29T13:52:00Z</time>
      </trkpt>
      <trkpt lat="43.59243" lon="5.05965">
        <ele>76.5</ele>
        <time>2020-11-29T13:52:00Z</time>
      </trkpt>
      <trkpt lat="43.59231" lon="5.05952">
        <ele>76.4</ele>
        <time>2020-11-29T13:52:00Z</time>
      </trkpt>
      <trkpt lat="43.59222" lon="5.05936">
        <ele>76.5</ele>
        <time>2020-11-29T13:52:00Z</time>
      </trkpt>
      <trkpt lat="43.59215" lon="5.05918">
        <ele>76.8</ele>
        <time>2020-11-29T13:52:00Z</time>
      </trkpt>
      <trkpt lat="43.59209" lon="5.05901">
        <ele>77.1</ele>
        <time>2020-11-29T13:52:00Z</time>
      </trkpt>
      <trkpt lat="43.59203" lon="5.05885">
        <ele>77.4</ele>
        <time>2020-11-29T13:52:00Z</time>
      </trkpt>
      <trkpt lat="43.59203" lon="5.05863">
        <ele>77.6</ele>
        <time>2020-11-29T13:52:00Z</time>
      </trkpt>
      <trkpt lat="43.59195" lon="5.05848">
        <ele>78.1</ele>
        <time>2020-11-29T13:54:08Z</time>
      </trkpt>
      <trkpt lat="43.59184" lon="5.05833">
        <ele>79</ele>
        <time>2020-11-29T13:54:08Z</time>
      </trkpt>
      <trkpt lat="43.59171" lon="5.05829">
        <ele>79.7</ele>
        <time>2020-11-29T13:54:08Z</time>
      </trkpt>
      <trkpt lat="43.59157" lon="5.05824">
        <ele>80.5</ele>
        <time>2020-11-29T13:54:08Z</time>
      </trkpt>
      <trkpt lat="43.59144" lon="5.05816">
        <ele>81.3</ele>
        <time>2020-11-29T13:54:08Z</time>
      </trkpt>
      <trkpt lat="43.59131" lon="5.05806">
        <ele>81.8</ele>
        <time>2020-11-29T13:54:08Z</time>
      </trkpt>
      <trkpt lat="43.59119" lon="5.05797">
        <ele>82.2</ele>
        <time>2020-11-29T13:54:08Z</time>
      </trkpt>
      <trkpt lat="43.59109" lon="5.05783">
        <ele>82.3</ele>
        <time>2020-11-29T13:54:08Z</time>
      </trkpt>
      <trkpt lat="43.591" lon="5.05768">
        <ele>82.1</ele>
        <time>2020-11-29T13:54:08Z</time>
      </trkpt>
      <trkpt lat="43.59086" lon="5.05768">
        <ele>82.7</ele>
        <time>2020-11-29T13:54:08Z</time>
      </trkpt>
      <trkpt lat="43.59068" lon="5.0577">
        <ele>82.9</ele>
        <time>2020-11-29T13:54:08Z</time>
      </trkpt>
      <trkpt lat="43.59054" lon="5.05776">
        <ele>83.2</ele>
        <time>2020-11-29T13:54:08Z</time>
      </trkpt>
      <trkpt lat="43.5904" lon="5.05778">
        <ele>83.4</ele>
        <time>2020-11-29T13:56:16Z</time>
      </trkpt>
      <trkpt lat="43.59025" lon="5.05774">
        <ele>83</ele>
        <time>2020-11-29T13:56:16Z</time>
      </trkpt>
      <trkpt lat="43.59012" lon="5.05782">
        <ele>83.7</ele>
        <time>2020-11-29T13:56:16Z</time>
      </trkpt>
      <trkpt lat="43.59003" lon="5.05796">
        <ele>84.9</ele>
        <time>2020-11-29T13:56:16Z</time>
      </trkpt>
      <trkpt lat="43.58993" lon="5.05808">
        <ele>86.2</ele>
        <time>2020-11-29T13:56:16Z</time>
      </trkpt>
      <trkpt lat="43.58979" lon="5.05813">
        <ele>87.2</ele>
        <time>2020-11-29T13:56:16Z</time>
      </trkpt>
      <trkpt lat="43.58965" lon="5.05818">
        <ele>88.2</ele>
        <time>2020-11-29T13:56:16Z</time>
      </trkpt>
      <trkpt lat="43.58953" lon="5.05828">
        <ele>89.7</ele>
        <time>2020-11-29T13:56:16Z</time>
      </trkpt>
      <trkpt lat="43.58939" lon="5.05835">
        <ele>90.9</ele>
        <time>2020-11-29T13:56:16Z</time>
      </trkpt>
      <trkpt lat="43.58922" lon="5.05836">
        <ele>91.7</ele>
        <time>2020-11-29T13:56:16Z</time>
      </trkpt>
      <trkpt lat="43.5891" lon="5.05845">
        <ele>92</ele>
        <time>2020-11-29T13:56:16Z</time>
      </trkpt>
      <trkpt lat="43.58898" lon="5.05856">
        <ele>92.1</ele>
        <time>2020-11-29T13:58:24Z</time>
      </trkpt>
      <trkpt lat="43.58887" lon="5.05869">
        <ele>92.4</ele>
        <time>2020-11-29T13:58:24Z</time>
      </trkpt>
      <trkpt lat="43.5887" lon="5.05872">
        <ele>92.9</ele>
        <time>2020-11-29T13:58:24Z</time>
      </trkpt>
      <trkpt lat="43.58858" lon="5.05881">
        <ele>93.3</ele>
        <time>2020-11-29T13:58:24Z</time>
      </trkpt>
      <trkpt lat="43.58847" lon="5.05872">
        <ele>93.6</ele>
        <time>2020-11-29T13:58:24Z</time>
      </trkpt>
      <trkpt lat="43.58831" lon="5.05876">
        <ele>94</ele>
        <time>2020-11-29T13:58:24Z</time>
      </trkpt>
      <trkpt lat="43.58815" lon="5.0587">
        <ele>93.5</ele>
        <time>2020-11-29T13:58:24Z</time>
      </trkpt>
      <trkpt lat="43.58798" lon="5.05861">
        <ele>93</ele>
        <time>2020-11-29T13:58:24Z</time>
      </trkpt>
      <trkpt lat="43.58784" lon="5.05861">
        <ele>92.7</ele>
        <time>2020-11-29T14:00:32Z</time>
      </trkpt>
      <trkpt lat="43.58769" lon="5.05863">
        <ele>92.4</ele>
        <time>2020-11-29T14:00:32Z</time>
      </trkpt>
      <trkpt lat="43.58754" lon="5.05866">
        <ele>92.3</ele>
        <time>2020-11-29T14:00:32Z</time>
      </trkpt>
      <trkpt lat="43.58743" lon="5.05878">
        <ele>92.1</ele>
        <time>2020-11-29T14:00:32Z</time>
      </trkpt>
      <trkpt lat="43.58731" lon="5.05891">
        <ele>91.8</ele>
        <time>2020-11-29T14:00:32Z</time>
      </trkpt>
      <trkpt lat="43.5872" lon="5.05902">
        <ele>91.4</ele>
        <time>2020-11-29T14:00:32Z</time>
      </trkpt>
      <trkpt lat="43.58709" lon="5.05916">
        <ele>91</ele>
        <time>2020-11-29T14:00:32Z</time>
      </trkpt>
      <trkpt lat="43.587" lon="5.05932">
        <ele>90.4</ele>
        <time>2020-11-29T14:00:32Z</time>
      </trkpt>
      <trkpt lat="43.58694" lon="5.0595">
        <ele>90.1</ele>
        <time>2020-11-29T14:00:32Z</time>
      </trkpt>
      <trkpt lat="43.58683" lon="5.05962">
        <ele>89.5</ele>
        <time>2020-11-29T14:00:32Z</time>
      </trkpt>
      <trkpt lat="43.58668" lon="5.05965">
        <ele>88.7</ele>
        <time>2020-11-29T14:00:32Z</time>
      </trkpt>
      <trkpt lat="43.58656" lon="5.05956">
        <ele>88.2</ele>
        <time>2020-11-29T14:00:32Z</time>
      </trkpt>
      <trkpt lat="43.58643" lon="5.05949">
        <ele>87.8</ele>
        <time>2020-11-29T14:00:32Z</time>
      </trkpt>
      <trkpt lat="43.58629" lon="5.05942">
        <ele>87.4</ele>
        <time>2020-11-29T14:02:40Z</time>
      </trkpt>
      <trkpt lat="43.58619" lon="5.0593">
        <ele>87</ele>
        <time>2020-11-29T14:02:40Z</time>
      </trkpt>
      <trkpt lat="43.58605" lon="5.05919">
        <ele>86.5</ele>
        <time>2020-11-29T14:02:40Z</time>
      </trkpt>
      <trkpt lat="43.58594" lon="5.05909">
        <ele>86.1</ele>
        <time>2020-11-29T14:02:40Z</time>
      </trkpt>
      <trkpt lat="43.58582" lon="5.059">
        <ele>85.7</ele>
        <time>2020-11-29T14:02:40Z</time>
      </trkpt>
      <trkpt lat="43.58567" lon="5.05894">
        <ele>86</ele>
        <time>2020-11-29T14:02:40Z</time>
      </trkpt>
      <trkpt lat="43.58556" lon="5.05881">
        <ele>86.1</ele>
        <time>2020-11-29T14:02:40Z</time>
      </trkpt>
      <trkpt lat="43.58546" lon="5.05867">
        <ele>86.1</ele>
        <time>2020-11-29T14:02:40Z</time>
      </trkpt>
      <trkpt lat="43.58538" lon="5.05851">
        <ele>86</ele>
        <time>2020-11-29T14:02:40Z</time>
      </trkpt>
      <trkpt lat="43.58529" lon="5.05836">
        <ele>86</ele>
        <time>2020-11-29T14:02:40Z</time>
      </trkpt>
      <trkpt lat="43.58521" lon="5.0582">
        <ele>84.5</ele>
        <time>2020-11-29T14:02:40Z</time>
      </trkpt>
      <trkpt lat="43.58513" lon="5.05806">
        <ele>82.8</ele>
        <time>2020-11-29T14:02:40Z</time>
      </trkpt>
      <trkpt lat="43.58512" lon="5.05785">
        <ele>80.1</ele>
        <time>2020-11-29T14:04:48Z</time>
      </trkpt>
      <trkpt lat="43.58524" lon="5.05775">
        <ele>78.7</ele>
        <time>2020-11-29T14:04:48Z</time>
      </trkpt>
      <trkpt lat="43.58519" lon="5.05756">
        <ele>76.3</ele>
        <time>2020-11-29T14:04:48Z</time>
      </trkpt>
      <trkpt lat="43.58509" lon="5.05744">
        <ele>74.2</ele>
        <time>2020-11-29T14:04:48Z</time>
      </trkpt>
      <trkpt lat="43.58506" lon="5.05725">
        <ele>71</ele>
        <time>2020-11-29T14:04:48Z</time>
      </trkpt>
      <trkpt lat="43.58499" lon="5.05706">
        <ele>67.7</ele>
        <time>2020-11-29T14:04:48Z</time>
      </trkpt>
      <trkpt lat="43.58492" lon="5.05691">
        <ele>64.9</ele>
        <time>2020-11-29T14:04:48Z</time>
      </trkpt>
      <trkpt lat="43.58487" lon="5.05672">
        <ele>61.9</ele>
        <time>2020-11-29T14:06:56Z</time>
      </trkpt>
      <trkpt lat="43.58486" lon="5.05653">
        <ele>60.1</ele>
        <time>2020-11-29T14:06:56Z</time>
      </trkpt>
      <trkpt lat="43.58483" lon="5.05634">
        <ele>58.8</ele>
        <time>2020-11-29T14:06:56Z</time>
      </trkpt>
      <trkpt lat="43.5848" lon="5.05616">
        <ele>57.7</ele>
        <time>2020-11-29T14:06:56Z</time>
      </trkpt>
      <trkpt lat="43.58474" lon="5.05599">
        <ele>56.6</ele>
        <time>2020-11-29T14:06:56Z</time>
      </trkpt>
      <trkpt lat="43.58469" lon="5.05581">
        <ele>55.6</ele>
        <time>2020-11-29T14:06:56Z</time>
      </trkpt>
      <trkpt lat="43.58463" lon="5.05564">
        <ele>55.2</ele>
        <time>2020-11-29T14:06:56Z</time>
      </trkpt>
      <trkpt lat="43.58458" lon="5.05546">
        <ele>54.7</ele>
        <time>2020-11-29T14:06:56Z</time>
      </trkpt>
      <trkpt lat="43.58453" lon="5.05528">
        <ele>54.1</ele>
        <time>2020-11-29T14:06:56Z</time>
      </trkpt>
      <trkpt lat="43.58448" lon="5.0551">
        <ele>53.6</ele>
        <time>2020-11-29T14:06:56Z</time>
      </trkpt>
      <trkpt lat="43.58445" lon="5.05491">
        <ele>53.3</ele>
        <time>2020-11-29T14:06:56Z</time>
      </trkpt>
      <trkpt lat="43.58444" lon="5.0547">
        <ele>53.1</ele>
        <time>2020-11-29T14:06:56Z</time>
      </trkpt>
      <trkpt lat="43.58436" lon="5.05455">
        <ele>53.1</ele>
        <time>2020-11-29T14:09:04Z</time>
      </trkpt>
      <trkpt lat="43.58442" lon="5.05433">
        <ele>52.8</ele>
        <time>2020-11-29T14:09:04Z</time>
      </trkpt>
      <trkpt lat="43.58442" lon="5.05414">
        <ele>52.6</ele>
        <time>2020-11-29T14:09:04Z</time>
      </trkpt>
      <trkpt lat="43.58447" lon="5.05395">
        <ele>52.2</ele>
        <time>2020-11-29T14:09:04Z</time>
      </trkpt>
      <trkpt lat="43.58431" lon="5.05388">
        <ele>52.2</ele>
        <time>2020-11-29T14:09:04Z</time>
      </trkpt>
      <trkpt lat="43.58419" lon="5.05379">
        <ele>52.1</ele>
        <time>2020-11-29T14:09:04Z</time>
      </trkpt>
      <trkpt lat="43.58406" lon="5.05368">
        <ele>51.7</ele>
        <time>2020-11-29T14:09:04Z</time>
      </trkpt>
      <trkpt lat="43.58405" lon="5.05349">
        <ele>51.1</ele>
        <time>2020-11-29T14:09:04Z</time>
      </trkpt>
      <trkpt lat="43.58412" lon="5.05331">
        <ele>50.6</ele>
        <time>2020-11-29T14:09:04Z</time>
      </trkpt>
      <trkpt lat="43.58424" lon="5.05322">
        <ele>50.1</ele>
        <time>2020-11-29T14:09:04Z</time>
      </trkpt>
      <trkpt lat="43.58438" lon="5.0532">
        <ele>49.9</ele>
        <time>2020-11-29T14:09:04Z</time>
      </trkpt>
      <trkpt lat="43.58452" lon="5.05322">
        <ele>50</ele>
        <time>2020-11-29T14:09:04Z</time>
      </trkpt>
      <trkpt lat="43.58467" lon="5.05323">
        <ele>50.1</ele>
        <time>2020-11-29T14:09:04Z</time>
      </trkpt>
      <trkpt lat="43.58481" lon="5.05326">
        <ele>50.4</ele>
        <time>2020-11-29T14:09:04Z</time>
      </trkpt>
      <trkpt lat="43.58495" lon="5.05323">
        <ele>50.1</ele>
        <time>2020-11-29T14:11:12Z</time>
      </trkpt>
      <trkpt lat="43.58508" lon="5.05315">
        <ele>49.5</ele>
        <time>2020-11-29T14:11:12Z</time>
      </trkpt>
      <trkpt lat="43.5852" lon="5.05307">
        <ele>48.9</ele>
        <time>2020-11-29T14:11:12Z</time>
      </trkpt>
      <trkpt lat="43.58534" lon="5.05302">
        <ele>48.7</ele>
        <time>2020-11-29T14:11:12Z</time>
      </trkpt>
      <trkpt lat="43.58548" lon="5.05294">
        <ele>48.5</ele>
        <time>2020-11-29T14:11:12Z</time>
      </trkpt>
      <trkpt lat="43.58557" lon="5.0528">
        <ele>48</ele>
        <time>2020-11-29T14:11:12Z</time>
      </trkpt>
      <trkpt lat="43.58568" lon="5.05269">
        <ele>47.9</ele>
        <time>2020-11-29T14:11:12Z</time>
      </trkpt>
      <trkpt lat="43.58579" lon="5.05257">
        <ele>48</ele>
        <time>2020-11-29T14:11:12Z</time>
      </trkpt>
      <trkpt lat="43.58585" lon="5.05238">
        <ele>47.3</ele>
        <time>2020-11-29T14:11:12Z</time>
      </trkpt>
      <trkpt lat="43.58592" lon="5.05222">
        <ele>46.4</ele>
        <time>2020-11-29T14:13:20Z</time>
      </trkpt>
      <trkpt lat="43.58602" lon="5.05208">
        <ele>45.7</ele>
        <time>2020-11-29T14:13:20Z</time>
      </trkpt>
      <trkpt lat="43.58606" lon="5.0519">
        <ele>44.7</ele>
        <time>2020-11-29T14:13:20Z</time>
      </trkpt>
      <trkpt lat="43.58611" lon="5.05171">
        <ele>43.6</ele>
        <time>2020-11-29T14:13:20Z</time>
      </trkpt>
      <trkpt lat="43.58617" lon="5.05154">
        <ele>43.2</ele>
        <time>2020-11-29T14:13:20Z</time>
      </trkpt>
      <trkpt lat="43.58623" lon="5.05137">
        <ele>42.8</ele>
        <time>2020-11-29T14:13:20Z</time>
      </trkpt>
      <trkpt lat="43.58631" lon="5.05121">
        <ele>42.3</ele>
        <time>2020-11-29T14:13:20Z</time>
      </trkpt>
      <trkpt lat="43.58645" lon="5.0512">
        <ele>42.1</ele>
        <time>2020-11-29T14:13:20Z</time>
      </trkpt>
      <trkpt lat="43.58658" lon="5.05107">
        <ele>41.3</ele>
        <time>2020-11-29T14:13:20Z</time>
      </trkpt>
      <trkpt lat="43.58653" lon="5.05081">
        <ele>40.5</ele>
        <time>2020-11-29T14:13:20Z</time>
      </trkpt>
      <trkpt lat="43.58651" lon="5.05101">
        <ele>41.2</ele>
        <time>2020-11-29T14:13:20Z</time>
      </trkpt>
      <trkpt lat="43.58662" lon="5.05111">
        <ele>41.4</ele>
        <time>2020-11-29T14:13:20Z</time>
      </trkpt>
      <trkpt lat="43.58674" lon="5.05122">
        <ele>41.8</ele>
        <time>2020-11-29T14:13:20Z</time>
      </trkpt>
      <trkpt lat="43.58686" lon="5.05133">
        <ele>42.2</ele>
        <time>2020-11-29T14:13:20Z</time>
      </trkpt>
      <trkpt lat="43.58686" lon="5.05114">
        <ele>41.4</ele>
        <time>2020-11-29T14:15:28Z</time>
      </trkpt>
      <trkpt lat="43.58679" lon="5.05097">
        <ele>40.6</ele>
        <time>2020-11-29T14:15:28Z</time>
      </trkpt>
      <trkpt lat="43.58672" lon="5.05079">
        <ele>39.9</ele>
        <time>2020-11-29T14:15:28Z</time>
      </trkpt>
      <trkpt lat="43.58663" lon="5.05064">
        <ele>39.9</ele>
        <time>2020-11-29T14:15:28Z</time>
      </trkpt>
      <trkpt lat="43.58654" lon="5.05049">
        <ele>40.3</ele>
        <time>2020-11-29T14:15:28Z</time>
      </trkpt>
      <trkpt lat="43.58645" lon="5.05034">
        <ele>40.8</ele>
        <time>2020-11-29T14:15:28Z</time>
      </trkpt>
      <trkpt lat="43.58637" lon="5.05018">
        <ele>41.4</ele>
        <time>2020-11-29T14:15:28Z</time>
      </trkpt>
      <trkpt lat="43.58629" lon="5.05002">
        <ele>42.1</ele>
        <time>2020-11-29T14:15:28Z</time>
      </trkpt>
      <trkpt lat="43.58617" lon="5.04994">
        <ele>43.5</ele>
        <time>2020-11-29T14:15:28Z</time>
      </trkpt>
      <trkpt lat="43.58605" lon="5.05008">
        <ele>44</ele>
        <time>2020-11-29T14:15:28Z</time>
      </trkpt>
      <trkpt lat="43.58591" lon="5.05014">
        <ele>44.9</ele>
        <time>2020-11-29T14:17:36Z</time>
      </trkpt>
      <trkpt lat="43.5858" lon="5.05026">
        <ele>45.3</ele>
        <time>2020-11-29T14:17:36Z</time>
      </trkpt>
      <trkpt lat="43.58569" lon="5.05038">
        <ele>45.5</ele>
        <time>2020-11-29T14:19:44Z</time>
      </trkpt>
      <trkpt lat="43.58557" lon="5.05048">
        <ele>45.9</ele>
        <time>2020-11-29T14:19:44Z</time>
      </trkpt>
      <trkpt lat="43.58546" lon="5.05061">
        <ele>46</ele>
        <time>2020-11-29T14:19:44Z</time>
      </trkpt>
      <trkpt lat="43.58538" lon="5.05076">
        <ele>46</ele>
        <time>2020-11-29T14:19:44Z</time>
      </trkpt>
      <trkpt lat="43.58527" lon="5.05089">
        <ele>46.1</ele>
        <time>2020-11-29T14:19:44Z</time>
      </trkpt>
      <trkpt lat="43.58516" lon="5.05102">
        <ele>46.2</ele>
        <time>2020-11-29T14:19:44Z</time>
      </trkpt>
      <trkpt lat="43.58503" lon="5.05111">
        <ele>46.2</ele>
        <time>2020-11-29T14:19:44Z</time>
      </trkpt>
      <trkpt lat="43.5849" lon="5.05118">
        <ele>46.1</ele>
        <time>2020-11-29T14:19:44Z</time>
      </trkpt>
      <trkpt lat="43.58476" lon="5.05121">
        <ele>46.3</ele>
        <time>2020-11-29T14:19:44Z</time>
      </trkpt>
      <trkpt lat="43.58461" lon="5.05125">
        <ele>46.4</ele>
        <time>2020-11-29T14:19:44Z</time>
      </trkpt>
      <trkpt lat="43.5845" lon="5.05136">
        <ele>46</ele>
        <time>2020-11-29T14:19:44Z</time>
      </trkpt>
      <trkpt lat="43.58435" lon="5.0514">
        <ele>46.2</ele>
        <time>2020-11-29T14:19:44Z</time>
      </trkpt>
      <trkpt lat="43.58421" lon="5.05143">
        <ele>46.3</ele>
        <time>2020-11-29T14:19:44Z</time>
      </trkpt>
      <trkpt lat="43.58408" lon="5.05149">
        <ele>46.1</ele>
        <time>2020-11-29T14:19:44Z</time>
      </trkpt>
      <trkpt lat="43.58394" lon="5.0515">
        <ele>46.2</ele>
        <time>2020-11-29T14:21:52Z</time>
      </trkpt>
      <trkpt lat="43.58381" lon="5.05154">
        <ele>46.1</ele>
        <time>2020-11-29T14:21:52Z</time>
      </trkpt>
      <trkpt lat="43.58367" lon="5.05161">
        <ele>45.9</ele>
        <time>2020-11-29T14:21:52Z</time>
      </trkpt>
      <trkpt lat="43.58355" lon="5.0517">
        <ele>45.7</ele>
        <time>2020-11-29T14:21:52Z</time>
      </trkpt>
      <trkpt lat="43.58342" lon="5.0518">
        <ele>45.7</ele>
        <time>2020-11-29T14:21:52Z</time>
      </trkpt>
      <trkpt lat="43.58327" lon="5.05181">
        <ele>45.9</ele>
        <time>2020-11-29T14:21:52Z</time>
      </trkpt>
      <trkpt lat="43.58313" lon="5.05187">
        <ele>45.8</ele>
        <time>2020-11-29T14:21:52Z</time>
      </trkpt>
      <trkpt lat="43.58299" lon="5.05189">
        <ele>45.8</ele>
        <time>2020-11-29T14:21:52Z</time>
      </trkpt>
      <trkpt lat="43.58285" lon="5.05181">
        <ele>46.1</ele>
        <time>2020-11-29T14:21:52Z</time>
      </trkpt>
      <trkpt lat="43.58273" lon="5.0517">
        <ele>46.6</ele>
        <time>2020-11-29T14:21:52Z</time>
      </trkpt>
      <trkpt lat="43.58264" lon="5.05155">
        <ele>47.3</ele>
        <time>2020-11-29T14:24:00Z</time>
      </trkpt>
      <trkpt lat="43.58252" lon="5.05143">
        <ele>47.8</ele>
        <time>2020-11-29T14:24:00Z</time>
      </trkpt>
      <trkpt lat="43.58243" lon="5.0513">
        <ele>48.5</ele>
        <time>2020-11-29T14:24:00Z</time>
      </trkpt>
      <trkpt lat="43.58232" lon="5.05119">
        <ele>49.2</ele>
        <time>2020-11-29T14:24:00Z</time>
      </trkpt>
      <trkpt lat="43.58218" lon="5.05115">
        <ele>49.7</ele>
        <time>2020-11-29T14:24:00Z</time>
      </trkpt>
      <trkpt lat="43.58205" lon="5.05114">
        <ele>50.1</ele>
        <time>2020-11-29T14:24:00Z</time>
      </trkpt>
      <trkpt lat="43.58191" lon="5.05115">
        <ele>50.5</ele>
        <time>2020-11-29T14:24:00Z</time>
      </trkpt>
      <trkpt lat="43.58176" lon="5.05118">
        <ele>50.7</ele>
        <time>2020-11-29T14:24:00Z</time>
      </trkpt>
      <trkpt lat="43.58161" lon="5.05116">
        <ele>51.2</ele>
        <time>2020-11-29T14:24:00Z</time>
      </trkpt>
      <trkpt lat="43.58147" lon="5.05113">
        <ele>51.8</ele>
        <time>2020-11-29T14:24:00Z</time>
      </trkpt>
      <trkpt lat="43.58134" lon="5.05122">
        <ele>51.8</ele>
        <time>2020-11-29T14:24:00Z</time>
      </trkpt>
      <trkpt lat="43.58125" lon="5.05137">
        <ele>51.4</ele>
        <time>2020-11-29T14:24:00Z</time>
      </trkpt>
      <trkpt lat="43.58113" lon="5.05148">
        <ele>51.4</ele>
        <time>2020-11-29T14:26:08Z</time>
      </trkpt>
      <trkpt lat="43.581" lon="5.05153">
        <ele>51.8</ele>
        <time>2020-11-29T14:26:08Z</time>
      </trkpt>
      <trkpt lat="43.58087" lon="5.05162">
        <ele>52</ele>
        <time>2020-11-29T14:26:08Z</time>
      </trkpt>
      <trkpt lat="43.58074" lon="5.05156">
        <ele>53</ele>
        <time>2020-11-29T14:26:08Z</time>
      </trkpt>
      <trkpt lat="43.58061" lon="5.05155">
        <ele>54.1</ele>
        <time>2020-11-29T14:26:08Z</time>
      </trkpt>
      <trkpt lat="43.58047" lon="5.0516">
        <ele>54.8</ele>
        <time>2020-11-29T14:26:08Z</time>
      </trkpt>
      <trkpt lat="43.58033" lon="5.05162">
        <ele>55.8</ele>
        <time>2020-11-29T14:26:08Z</time>
      </trkpt>
      <trkpt lat="43.5802" lon="5.05169">
        <ele>56.4</ele>
        <time>2020-11-29T14:26:08Z</time>
      </trkpt>
      <trkpt lat="43.58007" lon="5.05174">
        <ele>56.7</ele>
        <time>2020-11-29T14:28:16Z</time>
      </trkpt>
      <trkpt lat="43.57994" lon="5.05183">
        <ele>56.9</ele>
        <time>2020-11-29T14:28:16Z</time>
      </trkpt>
      <trkpt lat="43.57982" lon="5.05191">
        <ele>57.1</ele>
        <time>2020-11-29T14:28:16Z</time>
      </trkpt>
      <trkpt lat="43.57971" lon="5.05203">
        <ele>57.1</ele>
        <time>2020-11-29T14:28:16Z</time>
      </trkpt>
      <trkpt lat="43.57958" lon="5.05211">
        <ele>57.6</ele>
        <time>2020-11-29T14:28:16Z</time>
      </trkpt>
      <trkpt lat="43.57945" lon="5.05219">
        <ele>58.2</ele>
        <time>2020-11-29T14:28:16Z</time>
      </trkpt>
      <trkpt lat="43.57929" lon="5.05216">
        <ele>59.8</ele>
        <time>2020-11-29T14:28:16Z</time>
      </trkpt>
      <trkpt lat="43.57916" lon="5.05212">
        <ele>61.3</ele>
        <time>2020-11-29T14:28:16Z</time>
      </trkpt>
      <trkpt lat="43.57901" lon="5.0521">
        <ele>61.8</ele>
        <time>2020-11-29T14:28:16Z</time>
      </trkpt>
      <trkpt lat="43.57888" lon="5.05204">
        <ele>62.4</ele>
        <time>2020-11-29T14:28:16Z</time>
      </trkpt>
      <trkpt lat="43.57877" lon="5.05191">
        <ele>63.5</ele>
        <time>2020-11-29T14:28:16Z</time>
      </trkpt>
      <trkpt lat="43.57864" lon="5.05192">
        <ele>63.8</ele>
        <time>2020-11-29T14:30:24Z</time>
      </trkpt>
      <trkpt lat="43.5785" lon="5.05199">
        <ele>63.7</ele>
        <time>2020-11-29T14:30:24Z</time>
      </trkpt>
      <trkpt lat="43.57838" lon="5.05209">
        <ele>63.3</ele>
        <time>2020-11-29T14:30:24Z</time>
      </trkpt>
      <trkpt lat="43.5784" lon="5.05228">
        <ele>62.2</ele>
        <time>2020-11-29T14:30:24Z</time>
      </trkpt>
      <trkpt lat="43.57838" lon="5.05249">
        <ele>61</ele>
        <time>2020-11-29T14:30:24Z</time>
      </trkpt>
      <trkpt lat="43.57841" lon="5.05267">
        <ele>60.9</ele>
        <time>2020-11-29T14:30:24Z</time>
      </trkpt>
      <trkpt lat="43.57843" lon="5.05286">
        <ele>60.8</ele>
        <time>2020-11-29T14:30:24Z</time>
      </trkpt>
      <trkpt lat="43.5785" lon="5.05304">
        <ele>60.2</ele>
        <time>2020-11-29T14:30:24Z</time>
      </trkpt>
      <trkpt lat="43.57848" lon="5.05324">
        <ele>60.3</ele>
        <time>2020-11-29T14:30:24Z</time>
      </trkpt>
      <trkpt lat="43.57839" lon="5.05338">
        <ele>61.1</ele>
        <time>2020-11-29T14:32:32Z</time>
      </trkpt>
      <trkpt lat="43.57826" lon="5.05346">
        <ele>61.7</ele>
        <time>2020-11-29T14:32:32Z</time>
      </trkpt>
      <trkpt lat="43.57811" lon="5.05351">
        <ele>62.6</ele>
        <time>2020-11-29T14:32:32Z</time>
      </trkpt>
      <trkpt lat="43.57797" lon="5.05353">
        <ele>63.6</ele>
        <time>2020-11-29T14:32:32Z</time>
      </trkpt>
      <trkpt lat="43.57783" lon="5.0536">
        <ele>64.2</ele>
        <time>2020-11-29T14:32:32Z</time>
      </trkpt>
      <trkpt lat="43.57769" lon="5.05363">
        <ele>65.1</ele>
        <time>2020-11-29T14:32:32Z</time>
      </trkpt>
      <trkpt lat="43.5776" lon="5.05377">
        <ele>65.1</ele>
        <time>2020-11-29T14:32:32Z</time>
      </trkpt>
      <trkpt lat="43.57746" lon="5.05383">
        <ele>66.1</ele>
        <time>2020-11-29T14:32:32Z</time>
      </trkpt>
      <trkpt lat="43.57732" lon="5.05381">
        <ele>67.7</ele>
        <time>2020-11-29T14:32:32Z</time>
      </trkpt>
      <trkpt lat="43.57718" lon="5.05383">
        <ele>69.1</ele>
        <time>2020-11-29T14:32:32Z</time>
      </trkpt>
      <trkpt lat="43.57707" lon="5.05395">
        <ele>69.7</ele>
        <time>2020-11-29T14:32:32Z</time>
      </trkpt>
      <trkpt lat="43.57699" lon="5.0541">
        <ele>69.8</ele>
        <time>2020-11-29T14:34:40Z</time>
      </trkpt>
      <trkpt lat="43.57685" lon="5.05416">
        <ele>71</ele>
        <time>2020-11-29T14:34:40Z</time>
      </trkpt>
      <trkpt lat="43.57673" lon="5.05427">
        <ele>71.1</ele>
        <time>2020-11-29T14:34:40Z</time>
      </trkpt>
      <trkpt lat="43.57665" lon="5.05444">
        <ele>70.2</ele>
        <time>2020-11-29T14:34:40Z</time>
      </trkpt>
      <trkpt lat="43.57653" lon="5.05453">
        <ele>70.2</ele>
        <time>2020-11-29T14:34:40Z</time>
      </trkpt>
      <trkpt lat="43.57641" lon="5.05462">
        <ele>70.2</ele>
        <time>2020-11-29T14:34:40Z</time>
      </trkpt>
      <trkpt lat="43.57627" lon="5.05466">
        <ele>71.1</ele>
        <time>2020-11-29T14:34:40Z</time>
      </trkpt>
      <trkpt lat="43.57614" lon="5.05475">
        <ele>71.4</ele>
        <time>2020-11-29T14:34:40Z</time>
      </trkpt>
      <trkpt lat="43.57609" lon="5.05493">
        <ele>70.2</ele>
        <time>2020-11-29T14:34:40Z</time>
      </trkpt>
      <trkpt lat="43.57596" lon="5.05503">
        <ele>70.3</ele>
        <time>2020-11-29T14:34:40Z</time>
      </trkpt>
      <trkpt lat="43.57588" lon="5.05518">
        <ele>68.9</ele>
        <time>2020-11-29T14:34:40Z</time>
      </trkpt>
      <trkpt lat="43.57577" lon="5.05531">
        <ele>68.4</ele>
        <time>2020-11-29T14:36:48Z</time>
      </trkpt>
      <trkpt lat="43.57565" lon="5.05541">
        <ele>68.7</ele>
        <time>2020-11-29T14:36:48Z</time>
      </trkpt>
      <trkpt lat="43.57554" lon="5.05555">
        <ele>68.3</ele>
        <time>2020-11-29T14:36:48Z</time>
      </trkpt>
      <trkpt lat="43.57543" lon="5.05571">
        <ele>67.9</ele>
        <time>2020-11-29T14:36:48Z</time>
      </trkpt>
      <trkpt lat="43.57533" lon="5.05585">
        <ele>67.7</ele>
        <time>2020-11-29T14:36:48Z</time>
      </trkpt>
      <trkpt lat="43.5752" lon="5.05596">
        <ele>68</ele>
        <time>2020-11-29T14:36:48Z</time>
      </trkpt>
      <trkpt lat="43.57506" lon="5.056">
        <ele>69.8</ele>
        <time>2020-11-29T14:36:48Z</time>
      </trkpt>
      <trkpt lat="43.57491" lon="5.056">
        <ele>71.8</ele>
        <time>2020-11-29T14:36:48Z</time>
      </trkpt>
      <trkpt lat="43.57477" lon="5.05608">
        <ele>72</ele>
        <time>2020-11-29T14:36:48Z</time>
      </trkpt>
      <trkpt lat="43.57466" lon="5.0562">
        <ele>71.5</ele>
        <time>2020-11-29T14:36:48Z</time>
      </trkpt>
      <trkpt lat="43.57452" lon="5.05617">
        <ele>73.2</ele>
        <time>2020-11-29T14:38:56Z</time>
      </trkpt>
      <trkpt lat="43.57438" lon="5.05618">
        <ele>74.5</ele>
        <time>2020-11-29T14:38:56Z</time>
      </trkpt>
      <trkpt lat="43.57425" lon="5.05621">
        <ele>75.4</ele>
        <time>2020-11-29T14:38:56Z</time>
      </trkpt>
      <trkpt lat="43.57409" lon="5.05625">
        <ele>76.7</ele>
        <time>2020-11-29T14:38:56Z</time>
      </trkpt>
      <trkpt lat="43.57395" lon="5.05625">
        <ele>78.7</ele>
        <time>2020-11-29T14:38:56Z</time>
      </trkpt>
      <trkpt lat="43.57382" lon="5.0563">
        <ele>79.9</ele>
        <time>2020-11-29T14:38:56Z</time>
      </trkpt>
      <trkpt lat="43.57373" lon="5.05645">
        <ele>78.8</ele>
        <time>2020-11-29T14:38:56Z</time>
      </trkpt>
      <trkpt lat="43.57362" lon="5.05656">
        <ele>78.6</ele>
        <time>2020-11-29T14:38:56Z</time>
      </trkpt>
      <trkpt lat="43.5735" lon="5.05668">
        <ele>78.4</ele>
        <time>2020-11-29T14:41:04Z</time>
      </trkpt>
      <trkpt lat="43.5734" lon="5.05681">
        <ele>76.7</ele>
        <time>2020-11-29T14:41:04Z</time>
      </trkpt>
      <trkpt lat="43.57327" lon="5.05686">
        <ele>77.8</ele>
        <time>2020-11-29T14:41:04Z</time>
      </trkpt>
      <trkpt lat="43.57315" lon="5.05696">
        <ele>77.6</ele>
        <time>2020-11-29T14:41:04Z</time>
      </trkpt>
      <trkpt lat="43.57303" lon="5.05707">
        <ele>77.1</ele>
        <time>2020-11-29T14:41:04Z</time>
      </trkpt>
      <trkpt lat="43.57292" lon="5.05719">
        <ele>76.3</ele>
        <time>2020-11-29T14:41:04Z</time>
      </trkpt>
      <trkpt lat="43.57283" lon="5.05733">
        <ele>74.6</ele>
        <time>2020-11-29T14:41:04Z</time>
      </trkpt>
      <trkpt lat="43.5727" lon="5.05743">
        <ele>74.5</ele>
        <time>2020-11-29T14:41:04Z</time>
      </trkpt>
      <trkpt lat="43.57261" lon="5.05758">
        <ele>71.7</ele>
        <time>2020-11-29T14:41:04Z</time>
      </trkpt>
      <trkpt lat="43.57253" lon="5.05774">
        <ele>67.6</ele>
        <time>2020-11-29T14:43:12Z</time>
      </trkpt>
      <trkpt lat="43.57248" lon="5.05792">
        <ele>62.8</ele>
        <time>2020-11-29T14:43:12Z</time>
      </trkpt>
      <trkpt lat="43.57234" lon="5.05791">
        <ele>64.4</ele>
        <time>2020-11-29T14:43:12Z</time>
      </trkpt>
      <trkpt lat="43.5722" lon="5.05791">
        <ele>66</ele>
        <time>2020-11-29T14:43:12Z</time>
      </trkpt>
      <trkpt lat="43.57208" lon="5.058">
        <ele>64.5</ele>
        <time>2020-11-29T14:43:12Z</time>
      </trkpt>
      <trkpt lat="43.57194" lon="5.05803">
        <ele>65.4</ele>
        <time>2020-11-29T14:43:12Z</time>
      </trkpt>
      <trkpt lat="43.57183" lon="5.05816">
        <ele>62.4</ele>
        <time>2020-11-29T14:43:12Z</time>
      </trkpt>
      <trkpt lat="43.57172" lon="5.0583">
        <ele>59.6</ele>
        <time>2020-11-29T14:45:20Z</time>
      </trkpt>
      <trkpt lat="43.57161" lon="5.05843">
        <ele>57.7</ele>
        <time>2020-11-29T14:45:20Z</time>
      </trkpt>
      <trkpt lat="43.57167" lon="5.0586">
        <ele>52.6</ele>
        <time>2020-11-29T14:45:20Z</time>
      </trkpt>
      <trkpt lat="43.57172" lon="5.05878">
        <ele>47.9</ele>
        <time>2020-11-29T14:45:20Z</time>
      </trkpt>
      <trkpt lat="43.57179" lon="5.05895">
        <ele>43.4</ele>
        <time>2020-11-29T14:45:20Z</time>
      </trkpt>
      <trkpt lat="43.5718" lon="5.05913">
        <ele>39.1</ele>
        <time>2020-11-29T14:45:20Z</time>
      </trkpt>
      <trkpt lat="43.57177" lon="5.05933">
        <ele>39</ele>
        <time>2020-11-29T14:45:20Z</time>
      </trkpt>
      <trkpt lat="43.57171" lon="5.05951">
        <ele>39.5</ele>
        <time>2020-11-29T14:47:28Z</time>
      </trkpt>
      <trkpt lat="43.57172" lon="5.05972">
        <ele>39.9</ele>
        <time>2020-11-29T14:47:28Z</time>
      </trkpt>
      <trkpt lat="43.57159" lon="5.05974">
        <ele>39.9</ele>
        <time>2020-11-29T14:47:28Z</time>
      </trkpt>
      <trkpt lat="43.5715" lon="5.0599">
        <ele>39.7</ele>
        <time>2020-11-29T14:47:28Z</time>
      </trkpt>
      <trkpt lat="43.57141" lon="5.06005">
        <ele>39.8</ele>
        <time>2020-11-29T14:47:28Z</time>
      </trkpt>
      <trkpt lat="43.5713" lon="5.06018">
        <ele>41.2</ele>
        <time>2020-11-29T14:47:28Z</time>
      </trkpt>
      <trkpt lat="43.57117" lon="5.06036">
        <ele>42.6</ele>
        <time>2020-11-29T14:47:28Z</time>
      </trkpt>
      <trkpt lat="43.57105" lon="5.06046">
        <ele>42.8</ele>
        <time>2020-11-29T14:47:28Z</time>
      </trkpt>
      <trkpt lat="43.57102" lon="5.06066">
        <ele>44.6</ele>
        <time>2020-11-29T14:49:36Z</time>
      </trkpt>
      <trkpt lat="43.57097" lon="5.06084">
        <ele>45.8</ele>
        <time>2020-11-29T14:49:36Z</time>
      </trkpt>
      <trkpt lat="43.57089" lon="5.06101">
        <ele>47.8</ele>
        <time>2020-11-29T14:49:36Z</time>
      </trkpt>
      <trkpt lat="43.57081" lon="5.06117">
        <ele>49.8</ele>
        <time>2020-11-29T14:49:36Z</time>
      </trkpt>
      <trkpt lat="43.57073" lon="5.06132">
        <ele>51.8</ele>
        <time>2020-11-29T14:49:36Z</time>
      </trkpt>
      <trkpt lat="43.57062" lon="5.06145">
        <ele>52.7</ele>
        <time>2020-11-29T14:49:36Z</time>
      </trkpt>
      <trkpt lat="43.57053" lon="5.06159">
        <ele>54.1</ele>
        <time>2020-11-29T14:49:36Z</time>
      </trkpt>
      <trkpt lat="43.57043" lon="5.06175">
        <ele>54.7</ele>
        <time>2020-11-29T14:49:36Z</time>
      </trkpt>
      <trkpt lat="43.57033" lon="5.06189">
        <ele>54.5</ele>
        <time>2020-11-29T14:49:36Z</time>
      </trkpt>
      <trkpt lat="43.57021" lon="5.06202">
        <ele>54.3</ele>
        <time>2020-11-29T14:49:36Z</time>
      </trkpt>
      <trkpt lat="43.57008" lon="5.06213">
        <ele>54.1</ele>
        <time>2020-11-29T14:53:52Z</time>
      </trkpt>
      <trkpt lat="43.56998" lon="5.06227">
        <ele>54.7</ele>
        <time>2020-11-29T14:53:52Z</time>
      </trkpt>
      <trkpt lat="43.56988" lon="5.06239">
        <ele>55.5</ele>
        <time>2020-11-29T14:53:52Z</time>
      </trkpt>
      <trkpt lat="43.56976" lon="5.0625">
        <ele>56.1</ele>
        <time>2020-11-29T14:53:52Z</time>
      </trkpt>
      <trkpt lat="43.56965" lon="5.06261">
        <ele>56.3</ele>
        <time>2020-11-29T14:53:52Z</time>
      </trkpt>
      <trkpt lat="43.56954" lon="5.06275">
        <ele>56.7</ele>
        <time>2020-11-29T14:53:52Z</time>
      </trkpt>
      <trkpt lat="43.56944" lon="5.06288">
        <ele>57.1</ele>
        <time>2020-11-29T14:53:52Z</time>
      </trkpt>
      <trkpt lat="43.56934" lon="5.06303">
        <ele>57.6</ele>
        <time>2020-11-29T14:53:52Z</time>
      </trkpt>
      <trkpt lat="43.5693" lon="5.0632">
        <ele>58.6</ele>
        <time>2020-11-29T14:53:52Z</time>
      </trkpt>
      <trkpt lat="43.56926" lon="5.0634">
        <ele>59.8</ele>
        <time>2020-11-29T14:53:52Z</time>
      </trkpt>
      <trkpt lat="43.56928" lon="5.06359">
        <ele>61.7</ele>
        <time>2020-11-29T14:53:52Z</time>
      </trkpt>
      <trkpt lat="43.56931" lon="5.06377">
        <ele>63.5</ele>
        <time>2020-11-29T14:53:52Z</time>
      </trkpt>
      <trkpt lat="43.56933" lon="5.06396">
        <ele>65.5</ele>
        <time>2020-11-29T14:53:52Z</time>
      </trkpt>
      <trkpt lat="43.56935" lon="5.06414">
        <ele>67.6</ele>
        <time>2020-11-29T14:56:00Z</time>
      </trkpt>
      <trkpt lat="43.56936" lon="5.06434">
        <ele>69.8</ele>
        <time>2020-11-29T14:56:00Z</time>
      </trkpt>
      <trkpt lat="43.56937" lon="5.06453">
        <ele>72</ele>
        <time>2020-11-29T14:56:00Z</time>
      </trkpt>
      <trkpt lat="43.56933" lon="5.06473">
        <ele>73.6</ele>
        <time>2020-11-29T14:56:00Z</time>
      </trkpt>
      <trkpt lat="43.56936" lon="5.06493">
        <ele>76.2</ele>
        <time>2020-11-29T14:56:00Z</time>
      </trkpt>
      <trkpt lat="43.56937" lon="5.06513">
        <ele>78.1</ele>
        <time>2020-11-29T14:56:00Z</time>
      </trkpt>
      <trkpt lat="43.56944" lon="5.0653">
        <ele>80.6</ele>
        <time>2020-11-29T14:56:00Z</time>
      </trkpt>
      <trkpt lat="43.56952" lon="5.06546">
        <ele>82.9</ele>
        <time>2020-11-29T14:56:00Z</time>
      </trkpt>
      <trkpt lat="43.56958" lon="5.06564">
        <ele>85.1</ele>
        <time>2020-11-29T14:56:00Z</time>
      </trkpt>
      <trkpt lat="43.56959" lon="5.06585">
        <ele>86.6</ele>
        <time>2020-11-29T14:56:00Z</time>
      </trkpt>
      <trkpt lat="43.56962" lon="5.06603">
        <ele>87.4</ele>
        <time>2020-11-29T14:56:00Z</time>
      </trkpt>
      <trkpt lat="43.56958" lon="5.06621">
        <ele>87.4</ele>
        <time>2020-11-29T14:58:08Z</time>
      </trkpt>
      <trkpt lat="43.56957" lon="5.06641">
        <ele>87.8</ele>
        <time>2020-11-29T14:58:08Z</time>
      </trkpt>
      <trkpt lat="43.56956" lon="5.0666">
        <ele>88.2</ele>
        <time>2020-11-29T14:58:08Z</time>
      </trkpt>
      <trkpt lat="43.56954" lon="5.06679">
        <ele>88.9</ele>
        <time>2020-11-29T14:58:08Z</time>
      </trkpt>
      <trkpt lat="43.56952" lon="5.06699">
        <ele>90</ele>
        <time>2020-11-29T14:58:08Z</time>
      </trkpt>
      <trkpt lat="43.56958" lon="5.06718">
        <ele>91.5</ele>
        <time>2020-11-29T14:58:08Z</time>
      </trkpt>
      <trkpt lat="43.56956" lon="5.06737">
        <ele>92.5</ele>
        <time>2020-11-29T14:58:08Z</time>
      </trkpt>
      <trkpt lat="43.56953" lon="5.06757">
        <ele>93.4</ele>
        <time>2020-11-29T14:58:08Z</time>
      </trkpt>
      <trkpt lat="43.56952" lon="5.06777">
        <ele>94.6</ele>
        <time>2020-11-29T14:58:08Z</time>
      </trkpt>
      <trkpt lat="43.56947" lon="5.06794">
        <ele>95.4</ele>
        <time>2020-11-29T14:58:08Z</time>
      </trkpt>
      <trkpt lat="43.56942" lon="5.06812">
        <ele>96.1</ele>
        <time>2020-11-29T14:58:08Z</time>
      </trkpt>
      <trkpt lat="43.56938" lon="5.06831">
        <ele>97.2</ele>
        <time>2020-11-29T15:00:16Z</time>
      </trkpt>
      <trkpt lat="43.56933" lon="5.06848">
        <ele>97.5</ele>
        <time>2020-11-29T15:00:16Z</time>
      </trkpt>
      <trkpt lat="43.56924" lon="5.06862">
        <ele>97.4</ele>
        <time>2020-11-29T15:00:16Z</time>
      </trkpt>
      <trkpt lat="43.56926" lon="5.0688">
        <ele>98.1</ele>
        <time>2020-11-29T15:00:16Z</time>
      </trkpt>
      <trkpt lat="43.5693" lon="5.06899">
        <ele>98.9</ele>
        <time>2020-11-29T15:00:16Z</time>
      </trkpt>
      <trkpt lat="43.56942" lon="5.06909">
        <ele>99.7</ele>
        <time>2020-11-29T15:00:16Z</time>
      </trkpt>
      <trkpt lat="43.56956" lon="5.0691">
        <ele>100.3</ele>
        <time>2020-11-29T15:00:16Z</time>
      </trkpt>
      <trkpt lat="43.5697" lon="5.06909">
        <ele>100.8</ele>
        <time>2020-11-29T15:00:16Z</time>
      </trkpt>
      <trkpt lat="43.56984" lon="5.06909">
        <ele>101.3</ele>
        <time>2020-11-29T15:00:16Z</time>
      </trkpt>
      <trkpt lat="43.56998" lon="5.06911">
        <ele>101.9</ele>
        <time>2020-11-29T15:02:24Z</time>
      </trkpt>
      <trkpt lat="43.57013" lon="5.06913">
        <ele>101.7</ele>
        <time>2020-11-29T15:02:24Z</time>
      </trkpt>
      <trkpt lat="43.57027" lon="5.06911">
        <ele>101.3</ele>
        <time>2020-11-29T15:02:24Z</time>
      </trkpt>
      <trkpt lat="43.57041" lon="5.06911">
        <ele>101</ele>
        <time>2020-11-29T15:02:24Z</time>
      </trkpt>
      <trkpt lat="43.57055" lon="5.06917">
        <ele>100.7</ele>
        <time>2020-11-29T15:02:24Z</time>
      </trkpt>
      <trkpt lat="43.57068" lon="5.06923">
        <ele>100.1</ele>
        <time>2020-11-29T15:02:24Z</time>
      </trkpt>
      <trkpt lat="43.57082" lon="5.06918">
        <ele>100</ele>
        <time>2020-11-29T15:02:24Z</time>
      </trkpt>
      <trkpt lat="43.57095" lon="5.0692">
        <ele>99.8</ele>
        <time>2020-11-29T15:02:24Z</time>
      </trkpt>
      <trkpt lat="43.57109" lon="5.06924">
        <ele>99.6</ele>
        <time>2020-11-29T15:02:24Z</time>
      </trkpt>
      <trkpt lat="43.57123" lon="5.06923">
        <ele>99.6</ele>
        <time>2020-11-29T15:02:24Z</time>
      </trkpt>
      <trkpt lat="43.57137" lon="5.06926">
        <ele>99.5</ele>
        <time>2020-11-29T15:02:24Z</time>
      </trkpt>
      <trkpt lat="43.57151" lon="5.06931">
        <ele>99.2</ele>
        <time>2020-11-29T15:02:24Z</time>
      </trkpt>
      <trkpt lat="43.57164" lon="5.06934">
        <ele>98.9</ele>
        <time>2020-11-29T15:04:32Z</time>
      </trkpt>
      <trkpt lat="43.57178" lon="5.06935">
        <ele>98.4</ele>
        <time>2020-11-29T15:04:32Z</time>
      </trkpt>
      <trkpt lat="43.57192" lon="5.06937">
        <ele>97.7</ele>
        <time>2020-11-29T15:04:32Z</time>
      </trkpt>
      <trkpt lat="43.57206" lon="5.06937">
        <ele>97.2</ele>
        <time>2020-11-29T15:04:32Z</time>
      </trkpt>
      <trkpt lat="43.5722" lon="5.06935">
        <ele>96.7</ele>
        <time>2020-11-29T15:04:32Z</time>
      </trkpt>
      <trkpt lat="43.57232" lon="5.06926">
        <ele>96.9</ele>
        <time>2020-11-29T15:04:32Z</time>
      </trkpt>
      <trkpt lat="43.57245" lon="5.06921">
        <ele>96.8</ele>
        <time>2020-11-29T15:04:32Z</time>
      </trkpt>
      <trkpt lat="43.57259" lon="5.06917">
        <ele>97.5</ele>
        <time>2020-11-29T15:04:32Z</time>
      </trkpt>
      <trkpt lat="43.57272" lon="5.06908">
        <ele>98.4</ele>
        <time>2020-11-29T15:04:32Z</time>
      </trkpt>
      <trkpt lat="43.57285" lon="5.06903">
        <ele>99.1</ele>
        <time>2020-11-29T15:04:32Z</time>
      </trkpt>
      <trkpt lat="43.57299" lon="5.06898">
        <ele>99.8</ele>
        <time>2020-11-29T15:04:32Z</time>
      </trkpt>
      <trkpt lat="43.57312" lon="5.0689">
        <ele>100.4</ele>
        <time>2020-11-29T15:04:32Z</time>
      </trkpt>
      <trkpt lat="43.57326" lon="5.06886">
        <ele>101</ele>
        <time>2020-11-29T15:06:40Z</time>
      </trkpt>
      <trkpt lat="43.57339" lon="5.0688">
        <ele>101.1</ele>
        <time>2020-11-29T15:06:40Z</time>
      </trkpt>
      <trkpt lat="43.57353" lon="5.06876">
        <ele>101</ele>
        <time>2020-11-29T15:06:40Z</time>
      </trkpt>
      <trkpt lat="43.57366" lon="5.0687">
        <ele>101</ele>
        <time>2020-11-29T15:06:40Z</time>
      </trkpt>
      <trkpt lat="43.57379" lon="5.06863">
        <ele>101.2</ele>
        <time>2020-11-29T15:06:40Z</time>
      </trkpt>
      <trkpt lat="43.57391" lon="5.06854">
        <ele>101.5</ele>
        <time>2020-11-29T15:06:40Z</time>
      </trkpt>
      <trkpt lat="43.57403" lon="5.06846">
        <ele>102.1</ele>
        <time>2020-11-29T15:06:40Z</time>
      </trkpt>
      <trkpt lat="43.57414" lon="5.06833">
        <ele>102.9</ele>
        <time>2020-11-29T15:06:40Z</time>
      </trkpt>
      <trkpt lat="43.57424" lon="5.0682">
        <ele>102.6</ele>
        <time>2020-11-29T15:06:40Z</time>
      </trkpt>
      <trkpt lat="43.57436" lon="5.06808">
        <ele>102.2</ele>
        <time>2020-11-29T15:06:40Z</time>
      </trkpt>
      <trkpt lat="43.57448" lon="5.06799">
        <ele>101.9</ele>
        <time>2020-11-29T15:06:40Z</time>
      </trkpt>
      <trkpt lat="43.5746" lon="5.06786">
        <ele>101.8</ele>
        <time>2020-11-29T15:06:40Z</time>
      </trkpt>
      <trkpt lat="43.57473" lon="5.06775">
        <ele>101.7</ele>
        <time>2020-11-29T15:08:48Z</time>
      </trkpt>
      <trkpt lat="43.57486" lon="5.06768">
        <ele>101.7</ele>
        <time>2020-11-29T15:08:48Z</time>
      </trkpt>
      <trkpt lat="43.57499" lon="5.06765">
        <ele>101.6</ele>
        <time>2020-11-29T15:08:48Z</time>
      </trkpt>
      <trkpt lat="43.57513" lon="5.06766">
        <ele>101.1</ele>
        <time>2020-11-29T15:08:48Z</time>
      </trkpt>
      <trkpt lat="43.57527" lon="5.0677">
        <ele>100.3</ele>
        <time>2020-11-29T15:08:48Z</time>
      </trkpt>
      <trkpt lat="43.57541" lon="5.06773">
        <ele>99.5</ele>
        <time>2020-11-29T15:08:48Z</time>
      </trkpt>
      <trkpt lat="43.57554" lon="5.06767">
        <ele>99.3</ele>
        <time>2020-11-29T15:08:48Z</time>
      </trkpt>
      <trkpt lat="43.57567" lon="5.06766">
        <ele>98.9</ele>
        <time>2020-11-29T15:08:48Z</time>
      </trkpt>
      <trkpt lat="43.57581" lon="5.06761">
        <ele>98.8</ele>
        <time>2020-11-29T15:08:48Z</time>
      </trkpt>
      <trkpt lat="43.57595" lon="5.06758">
        <ele>98.7</ele>
        <time>2020-11-29T15:08:48Z</time>
      </trkpt>
      <trkpt lat="43.57609" lon="5.06753">
        <ele>98.7</ele>
        <time>2020-11-29T15:08:48Z</time>
      </trkpt>
      <trkpt lat="43.5762" lon="5.0674">
        <ele>99.7</ele>
        <time>2020-11-29T15:08:48Z</time>
      </trkpt>
      <trkpt lat="43.57634" lon="5.06735">
        <ele>99.7</ele>
        <time>2020-11-29T15:10:56Z</time>
      </trkpt>
      <trkpt lat="43.57649" lon="5.06735">
        <ele>99.3</ele>
        <time>2020-11-29T15:10:56Z</time>
      </trkpt>
      <trkpt lat="43.57663" lon="5.06738">
        <ele>98.5</ele>
        <time>2020-11-29T15:10:56Z</time>
      </trkpt>
      <trkpt lat="43.57677" lon="5.06731">
        <ele>98.4</ele>
        <time>2020-11-29T15:10:56Z</time>
      </trkpt>
      <trkpt lat="43.57689" lon="5.06742">
        <ele>96.3</ele>
        <time>2020-11-29T15:10:56Z</time>
      </trkpt>
      <trkpt lat="43.57704" lon="5.0674">
        <ele>95.4</ele>
        <time>2020-11-29T15:10:56Z</time>
      </trkpt>
      <trkpt lat="43.57719" lon="5.06738">
        <ele>94.6</ele>
        <time>2020-11-29T15:10:56Z</time>
      </trkpt>
      <trkpt lat="43.57734" lon="5.06736">
        <ele>93.7</ele>
        <time>2020-11-29T15:10:56Z</time>
      </trkpt>
      <trkpt lat="43.57747" lon="5.06741">
        <ele>92.2</ele>
        <time>2020-11-29T15:10:56Z</time>
      </trkpt>
      <trkpt lat="43.57761" lon="5.06739">
        <ele>92</ele>
        <time>2020-11-29T15:10:56Z</time>
      </trkpt>
      <trkpt lat="43.57777" lon="5.06739">
        <ele>91.6</ele>
        <time>2020-11-29T15:10:56Z</time>
      </trkpt>
      <trkpt lat="43.57792" lon="5.06731">
        <ele>92.1</ele>
        <time>2020-11-29T15:10:56Z</time>
      </trkpt>
      <trkpt lat="43.57804" lon="5.06741">
        <ele>90.7</ele>
        <time>2020-11-29T15:13:04Z</time>
      </trkpt>
      <trkpt lat="43.57818" lon="5.06741">
        <ele>90.5</ele>
        <time>2020-11-29T15:13:04Z</time>
      </trkpt>
      <trkpt lat="43.57832" lon="5.06738">
        <ele>90.5</ele>
        <time>2020-11-29T15:13:04Z</time>
      </trkpt>
      <trkpt lat="43.57847" lon="5.06739">
        <ele>89.8</ele>
        <time>2020-11-29T15:13:04Z</time>
      </trkpt>
      <trkpt lat="43.57861" lon="5.06732">
        <ele>89.9</ele>
        <time>2020-11-29T15:13:04Z</time>
      </trkpt>
      <trkpt lat="43.57874" lon="5.06727">
        <ele>89.8</ele>
        <time>2020-11-29T15:13:04Z</time>
      </trkpt>
      <trkpt lat="43.57889" lon="5.06727">
        <ele>89.2</ele>
        <time>2020-11-29T15:13:04Z</time>
      </trkpt>
      <trkpt lat="43.57903" lon="5.06723">
        <ele>88.9</ele>
        <time>2020-11-29T15:13:04Z</time>
      </trkpt>
      <trkpt lat="43.57918" lon="5.06724">
        <ele>88.1</ele>
        <time>2020-11-29T15:13:04Z</time>
      </trkpt>
      <trkpt lat="43.57929" lon="5.06735">
        <ele>86.4</ele>
        <time>2020-11-29T15:13:04Z</time>
      </trkpt>
    </trkseg>
  </trk>
</gpx>